TimeCST,TemperatureF,Dew PointF,Humidity,Sea Level PressureIn,VisibilityMPH,Wind Direction,Wind SpeedMPH,Gust SpeedMPH,PrecipitationIn,Events,Conditions,WindDirDegrees,DateUTC
12:15 AM,53.6,44.6,72,29.91,10.0,North,9.2,-,N/A,,Scattered Clouds,10,2012-12-08 06:15:00
12:35 AM,53.6,44.6,72,29.91,10.0,North,10.4,-,N/A,,Scattered Clouds,10,2012-12-08 06:35:00
12:55 AM,53.6,44.6,72,29.91,10.0,North,8.1,-,N/A,,Scattered Clouds,10,2012-12-08 06:55:00
1:15 AM,53.6,44.6,72,29.90,10.0,NNE,8.1,-,N/A,,Clear,20,2012-12-08 07:15:00
1:35 AM,51.8,44.6,76,29.90,10.0,North,8.1,-,N/A,,Clear,360,2012-12-08 07:35:00
1:55 AM,51.8,44.6,76,29.91,10.0,North,6.9,-,N/A,,Clear,360,2012-12-08 07:55:00
2:15 AM,51.8,44.6,76,29.91,7.0,NNE,5.8,-,N/A,,Clear,20,2012-12-08 08:15:00
2:35 AM,51.8,46.4,82,29.92,7.0,NNE,4.6,-,N/A,,Scattered Clouds,20,2012-12-08 08:35:00
2:55 AM,51.8,46.4,82,29.91,7.0,North,8.1,-,N/A,,Scattered Clouds,360,2012-12-08 08:55:00
3:15 AM,51.8,46.4,82,29.92,7.0,North,6.9,-,N/A,,Scattered Clouds,10,2012-12-08 09:15:00
3:35 AM,51.8,46.4,82,29.91,5.0,North,5.8,-,N/A,,Scattered Clouds,10,2012-12-08 09:35:00
3:55 AM,51.8,46.4,82,29.91,7.0,North,4.6,-,N/A,,Mostly Cloudy,360,2012-12-08 09:55:00
4:15 AM,51.8,46.4,82,29.91,7.0,North,5.8,-,N/A,,Mostly Cloudy,10,2012-12-08 10:15:00
4:35 AM,51.8,46.4,82,29.91,7.0,North,3.5,-,N/A,,Mostly Cloudy,360,2012-12-08 10:35:00
4:55 AM,51.8,46.4,82,29.91,7.0,North,3.5,-,N/A,,Scattered Clouds,350,2012-12-08 10:55:00
5:15 AM,51.8,46.4,82,29.91,7.0,North,4.6,-,N/A,,Mostly Cloudy,350,2012-12-08 11:15:00
5:35 AM,51.8,46.4,82,29.92,7.0,North,5.8,-,N/A,,Overcast,350,2012-12-08 11:35:00
5:55 AM,51.8,46.4,82,29.92,7.0,North,6.9,-,N/A,,Overcast,360,2012-12-08 11:55:00
7:55 AM,53.6,48.2,82,29.94,5.0,North,5.8,-,N/A,,Overcast,10,2012-12-08 13:55:00
9:55 AM,55.4,48.2,77,29.96,5.0,Calm,Calm,-,N/A,,Overcast,0,2012-12-08 15:55:00
10:50 AM,57.2,48.2,72,29.95,5.0,Calm,Calm,-,N/A,,Mostly Cloudy,0,2012-12-08 16:50:00
12:50 PM,64.4,48.2,56,29.87,10.0,Calm,Calm,-,N/A,,Mostly Cloudy,0,2012-12-08 18:50:00
1:50 PM,66.2,51.8,60,29.85,10.0,Calm,Calm,-,N/A,,Mostly Cloudy,0,2012-12-08 19:50:00
2:50 PM,69.8,51.8,53,29.83,10.0,SE,4.6,-,N/A,,Scattered Clouds,130,2012-12-08 20:50:00
3:50 PM,71.6,55.4,57,29.81,10.0,South,6.9,-,N/A,,Clear,170,2012-12-08 21:50:00
4:50 PM,71.6,57.2,60,29.81,10.0,SSE,6.9,-,N/A,,Clear,150,2012-12-08 22:50:00
8:15 PM,62.6,57.2,82,29.81,7.0,Calm,Calm,-,N/A,,Clear,0,2012-12-09 02:15:00
8:35 PM,60.8,57.2,88,29.81,7.0,Calm,Calm,-,N/A,,Clear,0,2012-12-09 02:35:00
9:15 PM,62.6,59.0,88,29.81,7.0,South,3.5,-,N/A,,Clear,180,2012-12-09 03:15:00
9:35 PM,62.6,59.0,88,29.81,7.0,Calm,Calm,-,N/A,,Clear,0,2012-12-09 03:35:00
9:55 PM,62.6,59.0,88,29.81,7.0,South,3.5,-,N/A,,Clear,190,2012-12-09 03:55:00
10:15 PM,62.6,59.0,88,29.81,7.0,SSW,3.5,-,N/A,,Clear,200,2012-12-09 04:15:00
10:35 PM,62.6,59.0,88,29.81,7.0,South,4.6,-,N/A,,Clear,170,2012-12-09 04:35:00
10:55 PM,62.6,59.0,88,29.81,7.0,SSW,4.6,-,N/A,,Clear,210,2012-12-09 04:55:00
11:15 PM,62.6,60.8,94,29.81,7.0,South,4.6,-,N/A,,Clear,180,2012-12-09 05:15:00
11:35 PM,64.4,60.8,88,29.81,7.0,SSW,4.6,-,N/A,,Clear,200,2012-12-09 05:35:00
11:55 PM,64.4,60.8,88,29.81,7.0,SW,4.6,-,N/A,,Clear,220,2012-12-09 05:55:00